User: anonymous   Login
Location: Newark
(0.5300°S, 127.4800°E)
Time: 15:47:59
(UTC+00:00)
Language:

Vanguard 2 Rocket - Orbit

View from above orbital plane
View from above orbital plane
View from above satellite
View from above satellite

Ground track
Ground track

The orbit data is extracted from the following two-line orbital elements,

1    12U 59001B   19290.71149736 +.00000132 +00000-0 +55949-4 0  9999
2    12 032.9078 123.7287 1666851 234.5060 108.8550 11.44309769252052
Epoch (UTC): 17 October 2019 17:04:33
Eccentricity: 0.1666851
inclination: 32.9078°
perigee height: 554 km
apogee height: 3327 km
right ascension of ascending node: 123.7287°
argument of perigee: 234.5060°
revolutions per day: 11.44309769
mean anomaly at epoch: 108.8550°
orbit number at epoch: 25205

The dashed part of the orbit path shows where the satellite is in the earth's shadow,  

DLR